Location: Glencliff
(36.1226°N, 86.7183°W)
Time: 06:07:09
(UTC+00:00)

Cosmos 1900 - Pass Details

Date: 25 August 2019
Orbit: 684 x 737 km, 66.1° (Epoch: 19 September)

Event Time Altitude Azimuth Distance (km) Brightness Sun altitude
Rises 02:44:09 0° 333° (NNW) 3,120 8.7 -25.9°
Reaches altitude 10° 02:46:32 10° 335° (NNW) 2,188 7.7 -26.3°
Enters shadow 02:50:56 67° 5° (N) 764 4.5 -27.0°
